Lapse_Rate
6.1 5.9 5.8 5.9 5.8 5.7 5.4 5.8 5.1 6.1 6.0 6.2 5.5 5.4 5.1 5.3 5.4 5.2 5.0 4.9 4.7 4.7 4.8 4.8 5.0 5.1 4.9 4.7 4.6 4.6 4.5 4.5 4.7 4.8 5.0 5.1 5.2 5.2 5.2 5.2 5.3 5.5 5.6 5.6
5.8 5.8 5.6 5.7 5.9 5.9 5.7 5.7 5.3 5.8 5.9 6.9 5.9 5.1 5.0 5.0 4.9 4.8 4.6 4.6 4.6 4.6 4.7 4.8 4.8 4.6 4.5 4.5 4.4 4.3 4.4 4.5 4.6 4.9 5.0 5.0 5.1 5.2 5.3 5.5 5.5 5.5 5.5 5.5
5.1 5.4 5.1 4.9 6.8 6.7 6.3 6.1 6.0 5.4 6.6 5.7 5.6 5.3 4.8 4.5 4.5 4.3 4.3 4.3 4.4 4.5 4.6 4.6 4.5 4.4 4.5 4.3 4.1 4.1 4.4 4.7 4.7 4.7 4.9 5.0 5.2 5.3 5.4 5.5 5.6 5.7 5.7 5.6
4.7 4.9 3.0 6.2 6.1 6.2 6.2 6.2 5.9 5.9 6.0 5.5 5.3 4.8 4.2 4.0 4.0 3.9 4.0 4.3 4.5 4.6 4.8 4.7 4.6 4.4 4.2 4.1 4.2 4.4 4.5 4.5 4.7 4.8 5.0 5.1 5.3 5.5 5.6 5.7 5.9 6.0 6.1 6.1
4.3 4.0 5.2 6.3 6.1 5.8 5.4 6.3 5.8 5.9 5.7 5.5 5.2 4.9 4.7 4.4 4.2 4.3 4.4 4.6 4.7 4.6 4.5 4.3 4.3 4.2 4.3 4.3 4.3 4.3 4.4 4.7 5.0 5.0 5.2 5.3 5.5 5.7 5.8 5.8 5.9 5.9 5.7 5.7
3.5 3.5 3.3 5.5 5.8 5.6 5.4 5.7 5.9 5.8 5.6 5.5 5.3 5.4 5.0 4.6 4.5 4.6 4.7 4.7 4.7 4.6 4.5 4.2 4.0 4.1 4.3 4.3 4.2 4.3 4.6 4.8 4.8 4.8 5.0 5.3 5.4 5.6 5.6 5.6 5.7 5.6 5.7 5.5
3.8 3.6 4.8 6.0 5.6 5.6 5.4 5.6 5.6 5.7 5.5 5.4 5.2 5.2 5.0 4.7 4.7 4.8 4.9 4.9 4.7 4.5 4.3 4.0 3.9 3.9 3.9 4.0 4.1 4.3 4.4 4.6 4.8 4.9 5.0 5.2 5.4 5.5 5.5 5.5 5.5 5.4 5.4 5.3
4.0 3.5 4.7 6.0 6.0 5.8 5.8 5.7 5.6 5.4 5.3 5.1 4.9 5.0 5.1 4.8 4.8 4.9 4.8 4.5 4.4 4.1 3.9 3.9 3.8 3.8 3.8 3.8 3.9 4.1 4.5 4.6 4.6 4.8 5.1 5.3 5.3 5.4 5.3 5.2 5.1 4.9 4.6 4.5
5.7 6.1 6.1 5.9 5.8 5.5 5.3 5.2 5.1 5.1 5.1 5.0 4.8 4.8 4.7 4.7 4.8 4.8 4.5 4.3 4.0 3.9 4.0 4.0 3.9 3.9 4.0 3.9 3.9 4.2 4.4 4.6 4.8 4.9 5.0 4.9 5.0 5.0 4.8 4.5 4.3 4.2 4.0 4.0
5.2 6.3 5.8 5.6 5.3 5.3 5.2 5.1 4.9 4.8 4.7 4.7 4.5 4.6 4.6 4.7 4.6 4.5 4.4 4.0 3.7 3.7 3.8 4.0 4.0 4.1 4.0 3.9 4.1 4.5 4.7 4.6 4.6 4.7 4.7 4.6 4.5 4.3 4.2 4.0 4.0 3.8 3.9 4.1
5.0 6.1 5.4 5.6 5.2 5.2 5.1 5.1 5.0 4.9 4.8 4.9 4.8 4.9 4.9 4.8 4.7 4.5 4.1 3.8 3.8 3.9 4.2 4.4 4.2 4.1 4.0 3.9 3.9 4.2 4.4 4.3 4.3 4.2 4.1 4.1 4.1 4.1 4.1 4.3 4.4 4.1 4.2 4.2
5.4 5.6 5.1 5.6 5.7 5.4 5.0 4.8 4.8 4.8 5.0 5.0 5.0 4.9 4.9 4.7 4.6 4.3 4.1 4.1 4.3 4.4 4.3 4.4 4.2 4.1 4.1 3.9 3.8 4.0 4.2 4.1 4.0 3.9 4.0 4.1 4.3 4.4 4.7 4.8 5.1 5.5 5.5 5.6
5.9 6.0 5.7 5.4 5.3 5.3 5.2 4.9 4.8 4.7 4.7 4.7 4.7 4.7 4.7 4.5 4.3 4.2 4.3 4.6 4.7 4.5 4.4 4.4 4.2 4.2 4.1 3.8 3.9 4.1 3.9 3.8 3.8 3.9 4.1 4.3 4.3 4.6 5.0 5.4 6.3 6.9 7.0 6.9
5.8 5.3 5.5 5.5 5.2 5.2 5.0 4.9 4.8 4.7 4.6 4.7 4.8 4.7 4.4 4.3 4.6 4.7 4.8 4.8 4.8 4.8 4.7 4.5 4.5 4.5 4.2 4.1 4.1 3.9 3.8 3.7 3.8 4.1 4.3 4.5 4.7 5.0 5.7 6.0 6.4 7.5 7.8 7.5
5.6 5.6 5.4 5.3 5.4 5.1 4.9 4.7 4.5 4.5 4.5 4.5 4.4 4.2 4.2 4.4 4.5 4.7 5.0 5.1 5.0 4.8 4.7 4.6 4.7 4.7 4.3 4.0 3.9 3.9 3.8 3.9 4.2 4.5 4.8 5.0 5.3 5.7 6.1 6.8 7.5 7.6 7.7 7.7
5.1 5.2 5.1 4.7 4.8 5.0 5.0 4.8 4.4 4.5 4.6 4.6 4.4 4.4 4.5 4.8 5.2 5.3 5.1 4.8 4.6 4.7 4.8 4.8 4.7 4.3 4.1 4.0 3.9 4.0 4.1 4.4 4.7 4.9 5.2 5.9 6.0 6.4 7.0 7.6 7.6 7.6 7.4 7.4
6.0 6.0 5.8 5.7 5.2 5.0 5.0 4.8 4.7 4.7 4.7 4.7 4.9 5.2 5.4 5.4 5.3 5.1 5.0 4.9 4.9 4.8 4.6 4.4 4.4 4.3 4.1 4.1 4.2 4.4 4.6 4.9 5.1 5.4 6.0 6.3 6.9 7.4 7.8 7.7 7.6 7.5 7.3 7.1
6.3 6.4 6.3 5.9 5.2 5.0 4.9 4.9 4.9 5.0 5.1 5.2 5.1 5.1 5.3 5.4 5.3 5.0 4.9 4.8 4.7 4.6 4.6 4.4 4.4 4.3 4.4 4.5 4.6 4.8 5.1 5.4 5.8 6.1 6.7 7.1 7.5 7.7 7.6 7.4 7.3 7.1 7.1 7.1
6.4 6.5 6.3 5.9 5.5 5.4 5.3 5.3 5.3 5.3 5.2 5.1 5.2 5.3 5.2 5.1 5.0 4.8 4.6 4.6 4.8 4.7 4.8 4.7 4.5 4.5 4.6 4.8 5.1 5.6 6.1 6.4 6.8 7.1 7.4 7.5 7.6 7.3 7.2 7.2 7.0 6.9 7.0 7.0
6.3 5.9 5.5 5.3 5.2 5.2 5.2 5.1 5.1 5.3 5.5 5.4 5.3 5.1 5.0 4.9 4.6 4.6 4.8 5.0 5.2 4.9 4.9 4.7 4.8 5.0 5.3 5.9 6.2 6.6 7.1 7.5 7.8 7.8 7.8 7.4 7.2 7.0 7.0 6.9 6.8 6.7 6.8 6.8
5.6 5.5 5.4 5.3 5.2 5.2 5.2 5.3 5.4 5.4 5.1 4.9 4.8 4.7 4.5 4.6 4.7 5.1 5.4 5.4 5.4 5.2 5.1 5.2 5.6 6.1 6.6 6.9 7.4 7.9 8.2 8.3 7.9 7.7 7.5 7.2 6.9 6.8 6.9 6.9 6.8 6.8 6.7 6.7
5.3 5.3 5.3 5.3 5.4 5.4 5.4 5.5 5.3 4.9 4.7 4.7 4.7 4.7 4.8 5.1 5.4 5.5 5.5 5.4 5.4 5.6 5.9 6.5 6.8 7.2 7.7 8.2 8.3 8.4 8.4 8.2 7.9 7.6 7.3 7.0 6.9 7.0 6.9 6.7 6.7 6.7 6.7 6.7
5.6 5.5 5.5 5.5 5.4 5.3 5.2 5.1 4.9 4.8 4.8 4.9 4.9 5.1 5.2 5.3 5.3 5.3 5.4 5.9 6.3 6.7 6.9 7.3 7.6 7.8 8.2 8.5 8.5 8.4 8.2 8.0 7.6 7.3 7.0 6.9 6.9 6.8 6.7 6.6 6.5 6.6 6.7 6.7
5.4 5.5 5.4 5.2 5.0 4.9 4.8 4.8 4.7 4.7 4.8 4.9 5.2 5.4 5.4 5.4 5.6 6.2 6.7 7.0 7.1 7.4 7.6 7.6 7.6 8.0 8.2 8.4 8.4 8.2 8.0 7.6 7.3 7.1 6.9 6.8 6.7 6.6 6.5 6.3 6.3 6.4 6.7 6.8
5.3 5.1 4.9 4.8 4.7 4.8 4.8 4.9 5.1 5.4 5.4 5.6 5.7 5.9 6.0 6.4 6.7 7.1 7.7 7.8 7.8 7.8 7.9 7.9 7.9 8.0 8.2 8.3 8.2 7.9 7.5 7.3 7.1 6.9 6.8 6.6 6.5 6.3 6.1 5.9 5.8 6.0 6.5 6.8
5.1 5.0 4.9 4.9 5.1 5.4 5.5 5.5 5.5 5.7 5.8 6.0 6.4 6.8 7.1 7.4 7.7 7.9 7.8 7.8 7.9 7.9 8.0 8.0 7.9 7.9 8.1 8.2 7.8 7.4 7.2 7.1 7.0 6.9 6.6 6.4 6.2 6.1 5.8 5.7 5.6 6.1 6.5 6.7
5.3 5.4 5.5 5.7 5.7 5.7 5.6 5.7 6.0 6.5 7.0 7.4 7.6 7.9 7.9 8.0 7.9 7.8 7.8 7.7 7.8 8.0 8.1 8.0 8.0 7.9 8.0 7.6 7.3 7.2 7.0 7.0 6.8 6.5 6.3 6.2 6.1 5.9 5.7 5.7 5.8 6.3 6.5 6.7
Wind_Speed
5 6 4 5 6 7 9 7 7 5 10 7 11 11 9 8 6 7 5 3 1 1 3 4 6 6 6 6 7 6 7 7 7 7 7 7 7 7 8 8 8 7 8 8
4 2 1 6 9 10 12 11 13 10 17 7 5 4 6 8 7 7 5 4 1 1 3 4 5 5 6 6 7 6 6 6 6 7 7 7 8 9 8 9 8 7 8 8
4 4 7 8 10 14 5 6 8 11 13 7 6 8 9 8 8 7 6 5 2 1 2 4 4 5 6 7 6 6 7 7 7 7 8 9 9 9 10 10 8 10 9 9
3 4 2 6 3 4 11 10 11 7 4 8 8 4 6 5 7 7 6 5 3 2 3 3 4 6 6 5 5 6 7 7 7 7 9 10 9 10 10 9 10 10 10 11
1 2 8 4 2 5 6 7 9 17 6 3 5 5 2 4 5 6 6 5 3 2 2 3 5 5 6 5 6 7 7 8 10 10 11 11 11 11 11 10 11 10 10 12
2 1 5 3 1 2 2 5 1 6 7 8 6 4 4 8 6 6 6 3 3 3 2 2 5 5 7 7 6 7 9 10 10 10 10 12 12 12 9 9 12 10 12 11
3 3 8 7 3 2 1 4 2 5 6 7 5 3 3 7 5 6 5 4 1 2 4 4 5 5 6 6 7 8 9 9 10 10 11 11 10 11 11 12 12 12 13 12
4 3 8 5 4 6 4 1 2 4 6 6 4 6 6 7 7 6 5 2 1 3 5 5 4 3 7 7 8 7 8 10 11 11 9 10 12 12 10 11 13 13 12 12
9 7 4 5 5 4 4 4 4 5 4 7 7 6 7 6 6 5 4 2 1 3 7 7 6 4 7 8 6 8 7 9 10 10 9 9 9 11 10 10 9 11 10 11
1 6 10 11 7 6 6 6 5 4 5 7 6 7 6 5 4 3 2 2 1 4 6 8 7 7 7 8 8 7 8 10 10 10 12 10 8 7 8 9 9 10 11 11
5 10 6 9 7 5 5 4 5 5 6 7 7 6 5 4 3 4 4 2 2 5 6 9 7 9 10 9 8 10 9 9 10 8 9 10 9 8 9 10 11 12 13 12
6 4 4 6 4 5 8 7 7 7 5 4 5 6 3 2 2 2 5 4 5 6 6 9 8 9 12 8 8 11 10 8 8 9 8 9 9 11 18 20 24 23 23 19
7 2 5 5 5 3 5 5 5 6 4 5 3 2 0 1 2 6 6 6 7 8 9 10 11 10 12 9 9 10 10 10 8 10 9 9 10 10 12 17 21 20 22 24
4 1 4 4 3 5 5 6 7 5 4 3 3 1 1 3 5 5 7 8 7 7 9 11 11 12 12 11 9 10 10 18 9 8 9 9 10 11 10 10 13 15 17 18
6 3 4 2 4 4 4 5 6 4 2 1 0 1 1 5 6 8 9 9 8 7 10 11 11 13 11 8 8 10 9 8 8 9 9 11 11 11 11 11 11 12 12 15
5 2 1 2 5 6 6 6 5 3 1 1 3 4 5 5 7 8 9 8 6 10 12 13 11 14 11 8 9 9 9 17 16 10 9 10 10 10 11 11 11 10 10 10
4 3 3 3 6 5 5 5 4 3 1 3 5 5 6 7 7 8 8 7 8 11 13 12 14 12 10 8 9 8 8 10 18 11 9 10 11 11 12 11 11 10 11 11
7 3 5 6 7 6 4 4 4 4 3 4 4 6 7 7 9 10 11 9 10 11 12 12 11 11 10 8 8 8 8 9 10 11 11 11 11 12 11 11 13 10 10 11
2 5 6 7 6 5 4 3 4 5 5 4 4 7 8 8 9 10 9 8 11 10 13 8 13 14 10 13 13 8 9 11 13 11 11 17 13 12 12 11 9 11 11 10
5 4 5 3 2 1 5 5 6 6 7 6 7 7 9 10 8 9 8 10 12 10 12 13 12 10 11 12 17 8 9 12 14 12 10 11 12 13 12 13 13 11 11 10
0 2 3 3 4 5 6 7 7 7 7 7 8 10 11 11 9 9 8 7 14 10 10 15 9 8 8 12 12 9 12 12 13 10 11 12 13 13 13 14 13 8 10 9
4 4 5 4 6 7 7 7 6 6 7 9 9 9 8 10 9 9 10 10 11 19 10 6 6 12 11 22 10 10 13 13 10 9 10 12 12 11 11 13 12 12 11 6
6 5 4 5 7 8 7 8 8 7 9 10 9 10 7 8 7 7 10 7 5 9 8 8 15 21 23 11 9 10 12 11 11 12 10 9 13 11 10 11 12 11 10 6
6 7 6 4 3 4 9 11 8 8 8 11 11 10 7 6 8 6 9 18 21 17 11 11 15 23 23 9 8 9 10 11 9 7 13 16 10 10 10 11 9 9 10 10
7 6 3 5 6 8 9 8 6 8 7 8 10 9 9 7 8 10 7 8 17 14 10 17 20 21 10 8 9 10 9 5 10 10 10 10 9 9 10 10 10 9 8 7
7 7 5 7 8 8 7 6 7 8 4 7 8 7 6 5 7 9 9 13 9 12 9 8 8 9 8 9 10 6 8 9 10 10 11 9 10 10 10 11 10 8 8 7
6 10 6 5 6 6 6 6 6 8 7 6 9 10 8 7 6 9 12 8 8 8 8 7 7 10 9 10 5 7 7 8 12 10 9 9 9 9 9 10 9 7 5 4
Wind_Direction
242 231 208 223 209 189 201 208 196 229 217 217 210 205 196 181 157 157 160 142 160 9 346 342 356 356 351 349 348 346 347 346 337 327 325 323 324 319 315 312 306 291 288 277
301 32 229 265 239 220 224 233 248 259 268 211 249 163 174 187 167 175 177 173 182 24 1 2 353 341 336 339 341 342 330 320 316 322 323 320 319 317 312 303 299 293 289 276
271 350 328 298 234 216 205 213 207 224 247 175 201 201 189 178 178 176 176 188 189 315 317 329 338 333 343 337 328 327 318 320 322 325 325 320 312 310 311 308 301 299 293 285
264 352 305 248 169 182 210 241 220 260 210 193 210 140 132 166 166 172 188 197 209 250 310 325 334 339 323 301 294 307 325 326 321 312 314 314 311 307 306 305 300 298 297 293
136 219 291 303 184 166 181 282 218 228 200 147 109 71 6 169 162 179 189 194 216 253 289 326 321 303 299 324 340 340 322 315 319 320 315 314 310 305 301 300 306 304 297 295
136 193 255 257 242 195 148 294 315 164 164 150 140 161 237 179 170 177 186 193 213 257 255 298 325 332 345 337 325 308 315 314 309 305 301 306 306 306 305 295 294 296 291 287
192 260 281 246 226 148 113 251 193 172 163 152 179 195 151 145 163 175 182 192 175 326 307 305 325 339 320 304 307 307 307 302 300 301 302 301 299 302 300 295 293 296 294 293
154 203 274 158 84 180 225 290 205 157 161 166 141 135 148 166 170 176 176 197 320 333 312 305 293 288 305 309 296 292 297 301 299 291 288 295 291 292 291 293 300 299 298 297
188 215 254 218 229 231 185 188 210 175 172 158 153 179 174 175 178 190 205 251 305 318 313 307 306 301 289 284 286 288 291 284 289 289 286 283 282 292 299 297 295 296 299 301
126 255 240 245 252 235 200 214 186 175 159 162 170 169 175 174 198 230 278 298 300 298 301 305 307 293 270 287 290 282 286 291 293 294 299 301 295 292 291 296 300 300 304 299
257 282 276 266 233 227 208 193 160 154 165 173 158 173 174 196 216 249 268 263 267 302 295 287 289 288 293 289 288 287 287 292 296 292 294 300 295 293 294 289 287 297 296 294
235 245 219 262 294 198 194 194 176 153 145 151 156 176 171 218 243 274 306 310 310 288 274 283 286 284 287 287 282 284 289 293 294 300 298 296 297 299 289 289 293 297 299 296
262 288 227 272 291 194 178 160 154 154 142 152 118 129 89 292 308 308 301 286 276 275 281 291 291 284 284 283 280 275 274 290 293 299 297 296 295 293 298 306 299 301 306 304
285 208 272 215 264 161 142 145 137 114 104 110 126 115 303 301 313 302 286 284 278 273 280 284 283 280 286 280 275 273 276 286 291 289 289 289 287 285 281 291 302 308 312 309
311 234 308 356 101 104 101 120 113 111 106 42 276 296 317 302 293 287 291 287 288 280 282 282 284 285 284 277 272 279 285 288 285 283 281 281 291 290 286 285 287 289 302 304
293 280 210 174 147 132 123 118 123 156 188 264 319 321 295 263 264 273 281 288 291 294 286 282 284 280 288 278 273 282 277 277 284 289 288 287 289 287 286 285 287 292 294 292
189 228 155 165 166 156 159 157 153 159 262 302 297 303 306 297 292 284 279 270 257 271 277 282 277 283 280 271 264 275 281 285 288 289 285 283 284 285 285 282 282 282 286 287
208 244 189 160 157 157 166 180 191 216 238 256 292 296 282 277 276 286 287 287 284 280 277 275 272 274 275 267 263 281 283 283 284 282 287 287 287 285 288 284 287 282 286 286
118 128 119 134 157 171 196 224 228 241 266 252 262 267 267 268 270 274 278 276 283 291 292 290 288 294 286 285 290 286 284 286 291 291 288 292 294 289 288 284 281 294 290 286
89 96 127 157 187 236 283 276 269 264 264 268 270 273 276 276 271 276 282 277 276 272 282 283 286 285 282 284 290 286 284 288 294 290 290 297 300 298 297 283 290 283 285 280
215 307 278 290 293 295 276 271 275 271 269 265 268 273 274 282 282 274 282 282 288 283 274 281 278 279 285 293 298 292 296 298 293 290 296 294 293 290 287 284 283 279 286 273
266 264 273 263 264 272 271 261 252 257 260 267 266 264 267 272 273 276 257 243 278 285 284 279 278 279 288 298 298 296 300 292 286 296 291 289 290 295 303 299 293 290 283 254
278 267 271 287 286 284 292 286 280 266 274 273 269 271 252 263 268 276 287 281 247 265 277 280 287 294 300 304 293 291 291 292 291 290 291 302 297 293 299 301 293 290 295 282
268 276 268 265 304 296 283 282 270 261 252 270 266 261 255 275 279 238 246 268 277 281 277 280 287 295 301 297 292 286 284 293 296 304 296 297 297 295 291 293 292 294 288 286
264 263 251 275 271 272 274 271 268 274 263 263 270 272 250 234 229 276 272 267 275 285 284 284 288 295 297 285 280 279 296 311 305 301 301 295 293 295 293 292 287 285 287 279
272 272 257 252 260 274 276 277 270 279 264 271 276 271 260 242 236 251 264 271 275 277 276 282 284 290 285 287 286 301 311 307 306 298 300 298 294 294 294 294 291 288 285 280
264 269 264 268 254 250 252 252 263 272 270 260 271 286 281 276 262 265 264 266 267 269 270 275 277 284 287 287 313 309 307 306 307 307 305 300 296 295 300 301 300 291 288 286